Regional Weather Roundup
Issued by NWS

Home | Current Version | Previous Version | Text Only | Print | Product List | Glossary Off
Versions: 1 2 3 4 5 6 7 8 9 10 11 12 13 14 15 16 17 18 19 20 21 22 23 24 25 26 27 28 29 30 31 32 33 34 35 36 37 38 39 40 41 42 43 44 45 46 47 48 49 50

000
ASUS43 KDTX 230501
RWRMI
MICHIGAN HOURLY REGIONAL WEATHER ROUNDUP
NATIONAL WEATHER SERVICE DETROIT/PONTIAC MI
100 AM EDT SAT MAY 23 2015

NOTE: "FAIR" INDICATES FEW OR NO CLOUDS BELOW 12,000 FEET WITH NO
SIGNIFICANT WEATHER AND/OR OBSTRUCTION TO VISIBILITY.

MIZ047>049-052>055-059>063-066>070-074>076-081>083-230600-
SOUTHEAST LOWER MICHIGAN

CITY           SKY/WX    TMP DP  RH WIND       PRES   REMARKS
ADRIAN         MOCLDY    51  37  58 NE7       30.33R
ALMA           PTCLDY    40  35  83 CALM      30.33S
ANN ARBOR      PTCLDY    46  27  47 NE7       30.34R
BAD AXE        CLEAR     34  26  71 CALM      30.33S
CARO           CLEAR     33  30  91 CALM      30.34R
DETROIT CITY   PTCLDY    44  26  49 N5        30.36S
DETROIT        MOCLDY    47  29  49 N6        30.35R
FLINT          PTCLDY    41  27  57 SE6       30.34F
GROSSE ILE     PTCLDY    46  30  53 NE8       30.33R
HILLSDALE      MOCLDY    51  34  53 CALM      30.31S
HOWELL         PTCLDY    44  30  59 E3        30.33S

CITY           SKY/WX    TMP DP  RH WIND       PRES   REMARKS
JACKSON        MOCLDY    49  35  58 NE10      30.32R
LAMBERTVILLE   MOCLDY    46  41  81 CALM      30.33R
LANSING        PTCLDY    48  32  53 SE6       30.32F
LAPEER         FAIR      33  29  83 CALM      30.35S
MASON          FAIR      46  33  60 CALM      30.33R
MONROE         PTCLDY    46  34  61 NE6       30.32R
MT. CLEMENS    PTCLDY    40  29  64 W1        30.33S
PONTIAC        PTCLDY    42  23  46 CALM      30.34S
PORT HOPE        N/A     39  26  59 SW7       30.30S WCI  34
PORT HURON     CLEAR     32  30  93 CALM      30.36R
TRI CITIES     CLEAR     45  32  60 S6        30.34R
MIDLAND        FAIR      39  36  89 CALM      30.33R
TROY           CLEAR     44  24  44 CALM      30.36F
SAGINAW HB     CLEAR     43  27  52 S5        30.33S
$$
MIZ043>046-050>051-056>058-064>065-071>073-077>080-230600-
SOUTHWEST LOWER MICHIGAN

CITY           SKY/WX    TMP DP  RH WIND       PRES   REMARKS
BATTLE CREEK   MOCLDY    47  35  63 CALM      30.32S
BENTON HARBOR  CLOUDY    43  39  86 E3        30.29F
BIG RAPIDS     CLEAR     38  32  80 W3        30.30F
COLDWATER      MOCLDY    46  35  64 CALM      30.31F
FREMONT        FAIR      40  30  67 CALM      30.29F
HOLLAND        MOCLDY    44  39  82 CALM      30.30F
GRAND RAPIDS   PTCLDY    45  35  68 CALM      30.31F
IONIA          FAIR      45  33  63 CALM      30.31S
KALAMAZOO      MOCLDY    45  35  68 CALM      30.31F
LUDINGTON      CLEAR     40  33  76 CALM      30.29F
MARSHALL       MOCLDY    46  38  74 CALM      30.31S
MOUNT PLEASANT CLEAR     40  35  85 CALM      30.31S
MUSKEGON       PTCLDY    42  34  73 CALM      30.30F
SOUTH HAVEN    MOCLDY    42  38  86 CALM      30.30S
$$
MIZ016>042-230600-
NORTHERN LOWER MICHIGAN

CITY           SKY/WX    TMP DP  RH WIND       PRES   REMARKS
ALPENA         CLEAR     34  29  82 CALM      30.30S
BEAVER ISLAND  CLEAR     33  28  80 CALM      30.28S
BELLAIRE       CLEAR     33  31  91 CALM      30.30S
CADILLAC       CLEAR     36  29  77 CALM      30.30S
CHARLEVOIX     CLEAR     38  30  73 CALM      30.31F
FRANKFORT      CLEAR     40  29  65 NE3       30.30R
GAYLORD        CLEAR     36  27  69 W3        30.28S
HARBOR SPRINGS CLEAR     35  29  78 CALM      30.29S
HOUGHTON LAKE  CLEAR     34  32  92 CALM      30.31S
MANISTEE       CLEAR     37  28  70 E3        30.30F
OSCODA         CLEAR     33  28  81 CALM      30.31R
PELLSTON       CLEAR     29  25  85 CALM      30.29S
ROGERS CITY    CLEAR     31  28  88 SW3       30.30S
TRAVERSE CITY  CLEAR     39  30  70 CALM      30.29S
$$
MIZ007>008-015-230600-
EASTERN UPPER MICHIGAN

CITY           SKY/WX    TMP DP  RH WIND       PRES   REMARKS
KINROSS        CLEAR     34  25  69 CALM      30.27S
MACKINAC ISLAN CLEAR     38  32  78 W6        30.27S WCI  34
NEWBERRY       CLEAR     37  29  73 SW6       30.25F WCI  32
S. S. MARIE    CLEAR     32  23  69 CALM      30.26F
$$
MIZ004>006-011>014-085-230600-
CENTRAL UPPER MICHIGAN

CITY           SKY/WX    TMP DP  RH WIND       PRES   REMARKS
MANISTIQUE     CLEAR     33  29  86 CALM      30.27S
ESCANABA       CLEAR     39  28  65 SW3       30.27S
MENOMINEE      CLEAR     46  27  46 S5        30.26F
SAWYER-GWINN   CLEAR     41  28  60 SW5       30.24F
$$
MIZ001>003-009>011-084-230600-
WESTERN UPPER MICHIGAN

CITY           SKY/WX    TMP DP  RH WIND       PRES   REMARKS
IRON MOUNTAIN  CLEAR     42  31  64 CALM      30.24F
HOUGHTON       CLEAR     41  27  57 S5        30.17F
COPPER HARBOR    N/A     44  26  49 W12G21    30.16F
IRONWOOD       CLEAR     57  28  33 S7        30.16S
$$

ABBREVIATIONS USED IN REMARKS
   TC - TEMPERATURE IN CELSIUS
  WCI - WIND CHILL INDEX
   HX - HEAT INDEX
  VSB - VISIBILITY




USA.gov is the U.S. government's official web portal to all federal, state and local government web resources and services.